Weather in Mangalore

India     12°52′02″N   74°50′47″E
temp.,
°C
wind,
m/s
gust,
m/s
humid.,
%
clouds,
%
prec.,
mm/h
press.,
hPa
HPBL,
m
4 december, sat
sat423:30+27ene1177100 1.3 1012245
02:30+26e228326 2.4 1010192
05:30+25e328798 3.1 1011150
08:30+26e338577 1.4 1013131
11:30+28s22735 1.9 1013377
14:30+28wsw33715 0.1 1010624
17:30+28w33715 0.1 1010727
20:30+28wnw227199 0.0 1013747
5 december, sun
sun523:30+28ne117398 0.1 1012322
02:30+26ne328368 0.1 1011208
05:30+25ene338515 0.2 1011213
08:30+25ne338319 0.1 1013232
11:30+27nw33794 0.1 1013378
14:30+27nw55785 0.0 1010457
17:30+28nnw77765 0.0 1010772
20:30+28nnw66747 0.0 1012766
6 december, mon
mon623:30+27n557415 0.0 1012758
02:30+27n567698 0.0 1010866
05:30+26n568097 0.0 1010620
08:30+26n458124 0.0 1013521
11:30+27nnw6676100 0.0 1012712
14:30+27nw777576 0.0 1009663
17:30+28nnw777173 0.0 1010679
20:30+28nnw677122 0.0 1012651
7 december, tue
tue723:30+27n6674100 0.0 1012622
02:30+27n6778100 0.0 1010581
05:30+26n5580100 0.0 1010457
08:30+26nne338096 0.0 1013328
11:30+27nnw227661 0.0 1012337
14:30+27wnw54785 0.0 1009295
17:30+28wnw337481 0.0 1010443
20:30+28nw337467 0.0 1012531
8 december, wed
wed823:30+28n3375100 0.0 1011616
02:30+27nne447998 0.1 1010441
05:30+26ne448197 0.6 1010216
08:30+26e347791 0.3 1012227
11:30+28ese3465100 0.3 1012564
14:30+28sw336998 0.0 1009300
17:30+28sw3372100 0.0 1010374
20:30+28wsw227292 0.7 1012207